White Mountain, AK

2:22 AM AKDT on May 23, 2018 (GMT -0800)
White Mountain

Weather History for PAWM - March, 2013

Change the Weather History Date:

Saturday, March 2, 2013

  Actual Average (PAOM) Record (PAOM)
Temperature  
Mean Temperature 7 °F -  
Max Temperature 21 °F 14 °F 44 °F (1938)
Min Temperature -7 °F -1 °F -37 °F (1951)
Degree Days  
Heating Degree Days 58    
Moisture  
Dew Point -7 °F    
Average Humidity 55    
Maximum Humidity 75    
Minimum Humidity 38    
Precipitation  
Precipitation 0.00 in - - ()
Sea Level Pressure  
Sea Level Pressure 30.05 in    
Wind  
Wind Speed 9 mph (North)    
Max Wind Speed 14 mph    
Max Gust Speed -    
Visibility 10 miles    
Events      
Averages and records for this station are not official NWS values.
T = Trace of Precipitation, MM = Missing Value Source: NWS Daily Summary

Daily Weather History Graph

Daily Weather History Graph

Search for Another Location

Airport or City:

Astronomy

Mar. 02, 2013 Rise Set
Actual Time 8:57 AM AKST 7:15 PM AKST
Civil Twilight 8:08 AM AKST 8:04 PM AKST
Nautical Twilight 7:12 AM AKST 9:01 PM AKST
Astronomical Twilight 6:13 AM AKST 9:59 PM AKST
Moon 2:09 AM AKST (3/2) 9:19 AM AKST (3/2)
Length of Visible Light 11h 56m
Length of Day
10h 18m
Waning Gibbous, 72% of the Moon is Illuminated
Mar 2
Waning Gibbous
Mar 4
Last Quarter
Mar 11
New
Mar 19
First Quarter
Mar 27
Full

Hourly Weather History & Observations

Time (AKST) Temp. Windchill Dew Point Humidity Pressure Visibility Wind Dir Wind Speed Gust Speed Precip Events Conditions
12:58 AM -7.1 °F -23.9 °F -14.1 °F 72% 30.10 in 10.0 mi North 9.2 mph - N/A   Clear
1:58 AM -7.1 °F -25.9 °F -13.0 °F 75% 30.09 in 10.0 mi North 11.5 mph - N/A   Clear
3:58 AM -5.1 °F -22.5 °F -13.0 °F 69% 30.07 in 10.0 mi North 10.4 mph - N/A   Clear
4:58 AM -5.1 °F -22.5 °F -14.1 °F 65% 30.06 in 10.0 mi North 10.4 mph - N/A   Clear
5:58 AM -2.9 °F -22.4 °F -14.1 °F 59% 30.06 in 10.0 mi North 13.8 mph - N/A   Clear
6:58 AM -0.0 °F -18.0 °F -13.0 °F 54% 30.06 in 10.0 mi North 12.7 mph - N/A   Clear
7:58 AM -0.9 °F -17.4 °F -14.1 °F 54% 30.05 in 10.0 mi North 10.4 mph - N/A   Clear
8:58 AM -0.9 °F -19.1 °F -15.0 °F 52% 30.05 in 10.0 mi North 12.7 mph - N/A   Clear
9:58 AM 3.0 °F -10.5 °F -14.1 °F 45% 30.06 in 10.0 mi NNE 8.1 mph - N/A   Clear
10:58 AM 7.0 °F -3.3 °F -13.0 °F 40% 30.06 in 10.0 mi North 5.8 mph - N/A   Clear
11:58 AM 9.0 °F -3.2 °F -11.9 °F 38% 30.06 in 9.0 mi North 8.1 mph - N/A   Clear
12:58 PM 10.0 °F -3.7 °F -8.0 °F 44% 30.06 in 10.0 mi North 10.4 mph - N/A   Clear
1:58 PM 15.1 °F 4.2 °F -4.0 °F 43% 30.05 in 9.0 mi NNW 8.1 mph - N/A   Clear
2:58 PM 21.0 °F 12.4 °F -0.0 °F 40% 30.04 in 9.0 mi North 6.9 mph - N/A   Clear
3:58 PM 19.9 °F 13.4 °F 1.0 °F 44% 30.04 in 10.0 mi WNW 4.6 mph - N/A   Clear
4:58 PM 21.9 °F 14.5 °F 5.0 °F 48% 30.03 in 9.0 mi NE 5.8 mph - N/A   Clear
5:58 PM 17.1 °F 11.7 °F -0.0 °F 47% 30.03 in 10.0 mi NW 3.5 mph - N/A   Clear
6:58 PM 10.9 °F -2.6 °F -0.0 °F 61% 30.01 in 10.0 mi North 10.4 mph - N/A   Clear
7:58 PM 12.0 °F 0.5 °F 1.9 °F 64% 30.01 in 10.0 mi NNE 8.1 mph - N/A   Clear
8:58 PM 9.0 °F -5.1 °F -0.9 °F 64% 30.02 in 10.0 mi North 10.4 mph - N/A   Clear
9:58 PM 9.0 °F -4.2 °F -0.0 °F 67% 30.03 in 10.0 mi NNW 9.2 mph - N/A   Clear
10:58 PM 9.0 °F -2.2 °F -0.0 °F 67% 30.05 in 10.0 mi North 6.9 mph - N/A   Clear
11:58 PM 12.0 °F 0.5 °F 1.9 °F 64% 30.06 in 10.0 mi NNE 8.1 mph - N/A   Clear